BTV456 WIDD-WIII

Flight info

Callsign BTV456
Flight time N/A
Altitude 37000
Route ANITO B470 BUNIK
Aircraft A319/M-SDE3FGHIRWY/LB1

Departure

Time 2026-05-09 03:32
Airport Hang Nadim International Airport (WIDD)

Arrival

Time N/A
Airport Soekarno-Hatta International Airport (WIII)
Time Latitude Longitude Altitude Speed Heading
2026-05-09 03:17 1.12425 104.11724 138 ft 0 kts 311°
2026-05-09 03:23 1.12413 104.11738 138 ft 4 kts 311°
2026-05-09 03:23 1.12395 104.11758 138 ft 4 kts 311°
2026-05-09 03:23 1.12381 104.11775 138 ft 2 kts 296°
2026-05-09 03:23 1.12376 104.11787 138 ft 2 kts 272°
2026-05-09 03:24 1.12377 104.11801 138 ft 2 kts 244°
2026-05-09 03:24 1.12383 104.11812 138 ft 2 kts 231°
2026-05-09 03:24 1.12390 104.11821 138 ft 2 kts 225°
2026-05-09 03:24 1.12392 104.11823 138 ft 0 kts 223°
2026-05-09 03:27 1.12386 104.11816 138 ft 3 kts 223°
2026-05-09 03:28 1.12364 104.11797 137 ft 6 kts 221°
2026-05-09 03:28 1.12323 104.11761 137 ft 10 kts 221°
2026-05-09 03:28 1.12264 104.11709 137 ft 13 kts 221°
2026-05-09 03:28 1.12193 104.11647 137 ft 13 kts 221°
2026-05-09 03:29 1.12138 104.11598 137 ft 10 kts 221°
2026-05-09 03:29 1.12068 104.11605 137 ft 12 kts 159°
2026-05-09 03:29 1.11987 104.11562 137 ft 16 kts 221°
2026-05-09 03:29 1.11896 104.11481 137 ft 19 kts 222°
2026-05-09 03:30 1.11787 104.11386 137 ft 22 kts 221°
2026-05-09 03:30 1.11662 104.11274 137 ft 26 kts 222°
2026-05-09 03:30 1.11553 104.11180 138 ft 19 kts 220°
2026-05-09 03:30 1.11497 104.11180 138 ft 9 kts 112°
2026-05-09 03:31 1.11512 104.11249 137 ft 12 kts 72°
2026-05-09 03:31 1.11534 104.11332 136 ft 9 kts 92°
2026-05-09 03:31 1.11526 104.11375 136 ft 5 kts 89°
2026-05-09 03:31 1.11568 104.11415 135 ft 18 kts 41°
2026-05-09 03:32 1.11821 104.11638 135 ft 79 kts 41°
2026-05-09 03:32 1.12388 104.12137 137 ft 137 kts 41°
2026-05-09 03:32 1.13204 104.12865 396 ft 164 kts 43°
2026-05-09 03:32 1.14060 104.13630 1120 ft 165 kts 41°
2026-05-09 03:33 1.14934 104.14417 1670 ft 178 kts 46°
2026-05-09 03:33 1.15465 104.15602 2029 ft 202 kts 86°
2026-05-09 03:33 1.15131 104.17036 2405 ft 228 kts 122°
2026-05-09 03:33 1.13929 104.18172 2900 ft 254 kts 153°
2026-05-09 03:34 1.12179 104.18591 3677 ft 266 kts 177°
2026-05-09 03:34 1.10947 104.18639 4339 ft 269 kts 180°
2026-05-09 03:34 1.09055 104.18683 5334 ft 275 kts 180°
2026-05-09 03:34 1.07144 104.18935 6274 ft 282 kts 161°
2026-05-09 03:35 1.05379 104.19818 7207 ft 286 kts 150°
2026-05-09 03:35 1.03646 104.20820 8144 ft 289 kts 150°
2026-05-09 03:35 1.01892 104.21835 9060 ft 294 kts 150°
2026-05-09 03:35 1.00103 104.22861 9949 ft 298 kts 150°
2026-05-09 03:36 0.98255 104.23916 10418 ft 317 kts 150°
2026-05-09 03:36 0.96286 104.25036 10907 ft 331 kts 150°
2026-05-09 03:36 0.94270 104.26107 11603 ft 337 kts 153°
2026-05-09 03:36 0.92121 104.27179 12367 ft 341 kts 154°
2026-05-09 03:37 0.90005 104.28203 13106 ft 345 kts 154°
2026-05-09 03:37 0.87832 104.29250 13850 ft 349 kts 154°
2026-05-09 03:37 0.85631 104.30316 14514 ft 353 kts 154°
2026-05-09 03:37 0.83418 104.31399 15172 ft 356 kts 153°
2026-05-09 03:38 0.81191 104.32495 15838 ft 358 kts 153°
2026-05-09 03:38 0.78947 104.33607 16478 ft 361 kts 153°
2026-05-09 03:38 0.76687 104.34728 17126 ft 364 kts 153°
2026-05-09 03:38 0.74405 104.35858 17767 ft 367 kts 153°
2026-05-09 03:39 0.72106 104.36996 18369 ft 370 kts 153°
2026-05-09 03:39 0.69788 104.38143 18900 ft 374 kts 153°
2026-05-09 03:39 0.67445 104.39303 19434 ft 377 kts 153°
2026-05-09 03:39 0.65086 104.40470 19956 ft 380 kts 153°
2026-05-09 03:40 0.62706 104.41648 20474 ft 383 kts 153°
2026-05-09 03:40 0.60304 104.42836 20993 ft 387 kts 153°
2026-05-09 03:40 0.57885 104.44032 21499 ft 390 kts 153°
2026-05-09 03:40 0.55445 104.45239 22004 ft 393 kts 153°
2026-05-09 03:41 0.52980 104.46457 22497 ft 397 kts 153°
2026-05-09 03:41 0.50497 104.47685 22981 ft 400 kts 153°
2026-05-09 03:41 0.47989 104.48929 23473 ft 404 kts 153°
2026-05-09 03:41 0.45461 104.50181 23884 ft 407 kts 153°
2026-05-09 03:42 0.42916 104.51441 24312 ft 409 kts 152°
2026-05-09 03:42 0.40356 104.52708 24736 ft 411 kts 152°
2026-05-09 03:42 0.37785 104.53979 25146 ft 414 kts 152°
2026-05-09 03:42 0.35198 104.55259 25576 ft 416 kts 152°
2026-05-09 03:43 0.32601 104.56540 25980 ft 418 kts 152°
2026-05-09 03:43 0.29990 104.57827 26388 ft 420 kts 152°
2026-05-09 03:43 0.27368 104.59121 26788 ft 422 kts 152°
2026-05-09 03:43 0.24726 104.60428 27184 ft 424 kts 152°
2026-05-09 03:44 0.22077 104.61739 27576 ft 426 kts 152°
2026-05-09 03:44 0.19415 104.63058 27961 ft 428 kts 152°
2026-05-09 03:44 0.16739 104.64379 28341 ft 431 kts 152°
2026-05-09 03:44 0.14039 104.65711 28717 ft 433 kts 152°
2026-05-09 03:45 0.11334 104.67045 29090 ft 435 kts 152°
2026-05-09 03:45 0.08644 104.68373 29454 ft 437 kts 152°
2026-05-09 03:45 0.05909 104.69728 29819 ft 440 kts 152°
2026-05-09 03:45 0.03153 104.71093 30155 ft 442 kts 152°
2026-05-09 03:46 0.00391 104.72463 30471 ft 444 kts 151°
2026-05-09 03:46 -0.02382 104.73838 30781 ft 446 kts 151°
2026-05-09 03:46 -0.05170 104.75219 31082 ft 449 kts 151°
2026-05-09 03:46 -0.07986 104.76610 31386 ft 451 kts 151°
2026-05-09 03:47 -0.10800 104.77998 31753 ft 451 kts 151°
2026-05-09 03:47 -0.13605 104.79381 32182 ft 450 kts 151°
2026-05-09 03:47 -0.16392 104.80757 32618 ft 449 kts 151°
2026-05-09 03:47 -0.19188 104.82141 33061 ft 448 kts 151°
2026-05-09 03:48 -0.21979 104.83521 33503 ft 448 kts 151°
2026-05-09 03:48 -0.24774 104.84902 33938 ft 447 kts 151°
2026-05-09 03:48 -0.27562 104.86285 34326 ft 445 kts 149°
2026-05-09 03:48 -0.30186 104.87898 34698 ft 442 kts 143°
2026-05-09 03:49 -0.32728 104.89616 35091 ft 441 kts 143°
2026-05-09 03:49 -0.35258 104.91332 35487 ft 439 kts 143°
2026-05-09 03:49 -0.37786 104.93047 35877 ft 438 kts 143°
2026-05-09 03:49 -0.40308 104.94758 36275 ft 436 kts 143°
2026-05-09 03:50 -0.42788 104.96443 36664 ft 435 kts 143°
2026-05-09 03:50 -0.45290 104.98138 36870 ft 435 kts 143°
2026-05-09 03:50 -0.50256 105.01498 36906 ft 428 kts 143°
2026-05-09 03:51 -0.55178 105.04835 36909 ft 427 kts 143°
2026-05-09 03:51 -0.60103 105.08160 36911 ft 427 kts 143°
2026-05-09 03:52 -0.65023 105.11491 36906 ft 426 kts 143°
2026-05-09 03:52 -0.69932 105.14815 36916 ft 426 kts 143°
2026-05-09 03:53 -0.74839 105.18134 36910 ft 425 kts 143°
2026-05-09 03:53 -0.79704 105.21427 36913 ft 425 kts 143°
2026-05-09 03:54 -0.84613 105.24743 36913 ft 424 kts 143°
2026-05-09 03:54 -0.89502 105.28046 36916 ft 424 kts 143°
2026-05-09 03:55 -0.94387 105.31354 36909 ft 424 kts 143°
2026-05-09 03:55 -0.99258 105.34661 36905 ft 423 kts 143°
2026-05-09 03:56 -1.04132 105.37960 36903 ft 423 kts 143°
2026-05-09 03:56 -1.09003 105.41254 36904 ft 423 kts 143°
2026-05-09 03:57 -1.13876 105.44553 36909 ft 423 kts 143°
2026-05-09 03:57 -1.18749 105.47853 36897 ft 422 kts 143°
2026-05-09 03:58 -1.23585 105.51118 36909 ft 423 kts 143°
2026-05-09 03:58 -1.28467 105.54418 36902 ft 423 kts 143°
2026-05-09 03:59 -1.33338 105.57725 36903 ft 423 kts 143°
2026-05-09 03:59 -1.38184 105.61013 36902 ft 424 kts 143°
2026-05-09 04:00 -1.43066 105.64314 36899 ft 424 kts 143°
2026-05-09 04:00 -1.47949 105.67618 36898 ft 424 kts 143°
2026-05-09 04:01 -1.52842 105.70935 36893 ft 425 kts 143°
2026-05-09 04:01 -1.57741 105.74248 36896 ft 425 kts 143°
2026-05-09 04:02 -1.62648 105.77565 36895 ft 426 kts 143°
2026-05-09 04:02 -1.67556 105.80889 36892 ft 427 kts 143°
2026-05-09 04:03 -1.72477 105.84223 36902 ft 427 kts 144°
2026-05-09 04:03 -1.77404 105.87559 36908 ft 427 kts 144°
2026-05-09 04:04 -1.82289 105.90866 36912 ft 427 kts 144°
2026-05-09 04:04 -1.87207 105.94201 36898 ft 427 kts 143°
2026-05-09 04:05 -1.92115 105.97528 36903 ft 426 kts 144°
2026-05-09 04:05 -1.97030 106.00862 36912 ft 426 kts 144°
2026-05-09 04:06 -2.01910 106.04167 36909 ft 426 kts 144°
2026-05-09 04:06 -2.06821 106.07494 36909 ft 426 kts 144°
2026-05-09 04:07 -2.11725 106.10812 36908 ft 426 kts 143°
2026-05-09 04:07 -2.16822 106.13824 36898 ft 429 kts 156°
2026-05-09 04:08 -2.22655 106.15241 36899 ft 433 kts 168°
2026-05-09 04:08 -2.28571 106.16236 36893 ft 434 kts 168°
2026-05-09 04:09 -2.34565 106.17255 36895 ft 434 kts 168°
2026-05-09 04:09 -2.40498 106.18277 36894 ft 435 kts 168°
2026-05-09 04:10 -2.46472 106.19298 36897 ft 436 kts 168°
2026-05-09 04:10 -2.52449 106.20317 36898 ft 436 kts 168°
2026-05-09 04:11 -2.58446 106.21343 36894 ft 437 kts 168°
2026-05-09 04:11 -2.64451 106.22368 36890 ft 437 kts 168°
2026-05-09 04:12 -2.70451 106.23396 36899 ft 437 kts 168°
2026-05-09 04:12 -2.76431 106.24425 36891 ft 438 kts 168°
2026-05-09 04:13 -2.82432 106.25458 36892 ft 438 kts 168°
2026-05-09 04:13 -2.88442 106.26482 36896 ft 438 kts 168°
2026-05-09 04:14 -2.94457 106.27507 36894 ft 438 kts 168°
2026-05-09 04:14 -3.00474 106.28540 36893 ft 439 kts 168°
2026-05-09 04:15 -3.06492 106.29576 36897 ft 439 kts 168°
2026-05-09 04:15 -3.12523 106.30608 36896 ft 440 kts 168°
2026-05-09 04:16 -3.18551 106.31641 36896 ft 440 kts 168°
2026-05-09 04:16 -3.24578 106.32670 36892 ft 440 kts 168°
2026-05-09 04:17 -3.30624 106.33707 36898 ft 440 kts 168°
2026-05-09 04:17 -3.36656 106.34738 36893 ft 441 kts 168°
2026-05-09 04:18 -3.42718 106.35774 36902 ft 441 kts 168°
2026-05-09 04:18 -3.48753 106.36811 36900 ft 441 kts 168°
2026-05-09 04:19 -3.54808 106.37843 36902 ft 440 kts 168°
2026-05-09 04:19 -3.60846 106.38877 36905 ft 440 kts 168°
2026-05-09 04:20 -3.66879 106.39938 36904 ft 440 kts 167°
2026-05-09 04:20 -3.71878 106.40889 36901 ft 440 kts 167°
2026-05-09 04:21 -3.77889 106.42042 36896 ft 440 kts 167°
2026-05-09 04:22 -3.87887 106.43924 36900 ft 440 kts 167°
2026-05-09 04:22 -3.92890 106.44850 36903 ft 440 kts 167°
2026-05-09 04:23 -3.98905 106.45972 36902 ft 439 kts 167°
2026-05-09 04:23 -4.04926 106.47102 36900 ft 439 kts 167°